This is the latest recevied weather packets stored in our database for station/object F4HUO-10. If no packets are shown the sender has not sent any weather packets the latest 10 day(s).
| Time | Temp. | Humidity | Pressure | Rain* | Wind** | Luminosity | Snow |
|---|---|---|---|---|---|---|---|
| 1778195264 | 20° C | 49% | 1004.5 hPa | - | - | - | - |
| 1778191670 | 20° C | 48% | 1004.6 hPa | - | - | - | - |
| 1778188069 | 20° C | 48% | 1004.6 hPa | - | - | - | - |
| 1778184468 | 20° C | 48% | 1004.3 hPa | - | - | - | - |
| 1778180866 | 20° C | 47% | 1003.8 hPa | - | - | - | - |
| 1778177265 | 20° C | 47% | 1003.5 hPa | - | - | - | - |
| 1778173663 | 20° C | 46% | 1003.5 hPa | - | - | - | - |
| 1778170070 | 20° C | 47% | 1003.5 hPa | - | - | - | - |
| 1778166469 | 20.56° C | 47% | 1003.7 hPa | - | - | - | - |
| 1778162868 | 20° C | 49% | 1004 hPa | - | - | - | - |
| 1778159266 | 20° C | 49% | 1004.2 hPa | - | - | - | - |
| 1778155665 | 20° C | 49% | 1004.1 hPa | - | - | - | - |
| 1778152065 | 20° C | 50% | 1004.5 hPa | - | - | - | - |
| 1778152063 | 20° C | 50% | 1004.5 hPa | - | - | - | - |
| 1778148471 | 20.56° C | 47% | 1004.6 hPa | - | - | - | - |
| 1778144869 | 20° C | 49% | 1004.5 hPa | - | - | - | - |
| 1778141267 | 20.56° C | 48% | 1004.3 hPa | - | - | - | - |
| 1778137665 | 20° C | 46% | 1004.1 hPa | - | - | - | - |
| 1778134064 | 20.56° C | 49% | 1003.7 hPa | - | - | - | - |
| 1778130462 | 20.56° C | 50% | 1003.3 hPa | - | - | - | - |
| 1778126869 | 20.56° C | 50% | 1002.8 hPa | - | - | - | - |
| 1778123267 | 20° C | 49% | 1002.8 hPa | - | - | - | - |
| 1778119666 | 20.56° C | 49% | 1002.6 hPa | - | - | - | - |
| 1778116064 | 20.56° C | 50% | 1002.4 hPa | - | - | - | - |
| 1778112463 | 20.56° C | 48% | 1002.4 hPa | - | - | - | - |
* Rain since midnight (hover to see other rain measurements)
** Current wind speed in m/s (hover to see current wind gust speed)